Weather History for Peru, IN

Change the Weather History Date:

Sunday, January 20, 2013

  Actual Average Record
Temperature  
Mean Temperature 28 °F -  
Max Temperature 39 °F 29 °F 55 °F (2006)
Min Temperature 18 °F 16 °F -4 °F (2000)
Degree Days  
Heating Degree Days 36    
Moisture  
Dew Point 10 °F    
Average Humidity 58    
Maximum Humidity 70    
Minimum Humidity 48    
Precipitation  
Precipitation 0.04 in - - ()
Sea Level Pressure  
Sea Level Pressure 30.18 in    
Wind  
Wind Speed 20 mph (WNW)    
Max Wind Speed 29 mph    
Max Gust Speed 44 mph    
Visibility 10 miles    
Events      
Averages and records for this station are not official NWS values.
T = Trace of Precipitation, MM = Missing Value Source: NWS Daily Summary

Daily Weather History Graph

Daily Weather History Graph

Search for Another Location

Airport:

Trip Planner

Search our weather history database for the weather conditions in past years. The results will help you decide how hot, cold, wet, or windy it might be!

Date:

Astronomy

Jan. 20, 2013 Rise Set
Actual Time 8:03 AM EST 5:48 PM EST
Civil Twilight 7:33 AM EST 6:17 PM EST
Nautical Twilight 7:00 AM EST 6:51 PM EST
Astronomical Twilight 6:27 AM EST 7:23 PM EST
Moon 12:49 PM EST (1/20) 2:35 AM EST (1/20)
Length of Visible Light 10h 44m
Length of Day
9h 44m
Waxing Gibbous, 66% of the Moon is Illuminated
Jan 20
Waxing Gibbous
Jan 26
Full
Feb 3
Last Quarter
Feb 10
New
Feb 17
First Quarter

Hourly Weather History & Observations

Time (EST) Temp. Windchill Dew Point Humidity Pressure Visibility Wind Dir Wind Speed Gust Speed Precip Events Conditions
12:55 AM 39.2 °F 28.0 °F 30.0 °F 70% 29.88 in 10.0 mi West 26.5 mph 40.3 mph N/A   Clear
1:55 AM 36.7 °F 24.2 °F 27.3 °F 69% 29.91 in 10.0 mi WNW 28.8 mph 39.1 mph N/A   Clear
2:55 AM 30.4 °F 15.9 °F 18.0 °F 60% 29.98 in 10.0 mi WNW 27.6 mph 43.7 mph 0.04 in   Clear
3:55 AM 28.0 °F 13.6 °F 14.9 °F 58% 30.03 in 10.0 mi West 24.2 mph 35.7 mph N/A   Clear
4:55 AM 25.0 °F 8.4 °F 8.8 °F 50% 30.06 in 10.0 mi WNW 28.8 mph 36.8 mph N/A   Clear
5:55 AM 23.2 °F 8.6 °F 10.0 °F 57% 30.10 in 10.0 mi NW 19.6 mph 28.8 mph N/A   Clear
6:55 AM 20.8 °F 5.1 °F 8.8 °F 60% 30.15 in 10.0 mi NW 20.7 mph 26.5 mph N/A   Clear
7:55 AM 19.2 °F 4.7 °F 9.1 °F 65% 30.19 in 10.0 mi WNW 16.1 mph - N/A   Clear
8:55 AM 18.3 °F 3.1 °F 8.2 °F 65% 30.23 in 10.0 mi WNW 17.3 mph - N/A   Clear
9:55 AM 19.0 °F 3.6 °F 6.8 °F 59% 30.26 in 10.0 mi NW 18.4 mph 24.2 mph N/A   Clear
10:31 AM 19.4 °F 6.0 °F 6.8 °F 58% 30.24 in 10.0 mi NW 13.8 mph - N/A   Clear
10:55 AM 19.8 °F 5.9 °F 6.3 °F 56% 30.29 in 10.0 mi NW 15.0 mph - N/A   Clear
11:55 AM 21.4 °F 11.1 °F 6.8 °F 53% 30.27 in 10.0 mi NNW 9.2 mph - N/A   Clear
12:55 PM 22.6 °F 11.3 °F 7.7 °F 53% 30.25 in 10.0 mi WNW 11.5 mph - N/A   Clear
1:55 PM 23.9 °F 12.3 °F 8.8 °F 53% 30.25 in 10.0 mi WNW 12.7 mph - N/A   Clear
2:55 PM 25.2 °F 13.3 °F 7.9 °F 48% 30.24 in 10.0 mi West 13.8 mph - N/A   Partly Cloudy
3:55 PM 23.9 °F 13.5 °F 8.1 °F 51% 30.25 in 10.0 mi West 10.4 mph - N/A   Clear
4:55 PM 23.4 °F 12.8 °F 7.2 °F 50% 30.25 in 10.0 mi WNW 10.4 mph - N/A   Clear
5:55 PM 22.6 °F 11.3 °F 8.6 °F 55% 30.26 in 10.0 mi WNW 11.5 mph - N/A   Scattered Clouds
6:55 PM 22.1 °F 11.3 °F 8.2 °F 55% 30.26 in 10.0 mi WNW 10.4 mph - N/A   Scattered Clouds
7:55 PM 21.9 °F 11.0 °F 8.2 °F 56% 30.26 in 10.0 mi West 10.4 mph - N/A   Mostly Cloudy
8:55 PM 21.6 °F 10.6 °F 7.7 °F 55% 30.25 in 10.0 mi WNW 10.4 mph - N/A   Mostly Cloudy
9:55 PM 20.8 °F 10.4 °F 9.0 °F 60% 30.24 in 10.0 mi West 9.2 mph - N/A   Overcast
10:55 PM 20.7 °F 8.8 °F 9.0 °F 61% 30.23 in 10.0 mi WNW 11.5 mph - N/A   Overcast
11:55 PM 20.3 °F 8.3 °F 9.9 °F 64% 30.22 in 10.0 mi West 11.5 mph - N/A   Overcast